Regional Weather Roundup
Issued by NWS Boston, MA

Current Version | Previous Version | Text Only | Print | Product List | Glossary Off
Versions: 1 2 3 4 5 6 7 8 9 10 11 12 13 14 15 16 17 18 19 20 21 22 23 24 25 26 27 28

000
ASUS41 KBOX 171810
RWRBOX

REGIONAL WEATHER ROUNDUP
NATIONAL WEATHER SERVICE TAUNTON MA
100 PM EST SUN DEC 17 2017

NOTE:  "FAIR" INDICATES FEW OR NO CLOUDS BELOW 12,000 FEET WITH NO
SIGNIFICANT WEATHER AND/OR OBSTRUCTIONS TO VISIBILITY.

MAZALL-171900-
EASTERN MASSACHUSETTS

CITY           SKY/WX    TMP DP  RH WIND       PRES   REMARKS
BOSTON         MOSUNNY   29   2  31 NW9       30.23F WCI  20
6HR MIN TEMP:  20; 6HR MAX TEMP:  29;

BEVERLY        SUNNY     28   2  32 W13       30.22F WCI  17
LAWRENCE       SUNNY     28   5  37 NW15G22   30.24F WCI  16
BEDFORD        SUNNY     28   2  32 NW13      30.22F WCI  17
BLUE HILL        N/A     26   5  40 VRB7      30.18F WCI  18
NORWOOD        SUNNY     31   4  31 NW8       30.23F WCI  23
MARSHFIELD     SUNNY     30   3  31 VRB5G12   30.23F WCI  25
PLYMOUTH       SUNNY     30   2  30 W9        30.23F WCI  22
TAUNTON        SUNNY     29   3  33 NW3       30.22F
NEW BEDFORD    MOSUNNY   28   5  37 W8        30.22F WCI  20
$$

MAZALL-171900-
CAPE COD AND THE ISLANDS

CITY           SKY/WX    TMP DP  RH WIND       PRES   REMARKS
FALMOUTH       SUNNY     27   0  31 NW7       30.23F WCI  19
HYANNIS        SUNNY     29   7  39 NW10      30.21F WCI  20
CHATHAM        SUNNY     31  13  47 VRB7      30.23F WCI  24
PROVINCETOWN   SUNNY     28  14  55 NW15      30.23F WCI  16
NANTUCKET      SUNNY     28  11  48 NW8       30.23F WCI  20
MARTHAS VNYRD  MOSUNNY   28  10  46 N8        30.23F WCI  20
$$

MAZALL-171900-
CENTRAL AND WESTERN MASSACHUSETTS

CITY           SKY/WX    TMP DP  RH WIND       PRES   REMARKS
WORCESTER      SUNNY     24   1  36 W9        30.17F WCI  14
6HR MIN TEMP:  14; 6HR MAX TEMP:  24;

FITCHBURG      SUNNY     29   5  36 NW12      30.23F WCI  19
ORANGE         NOT AVBL
SPRINGFIELD    PTSUNNY   29   6  38 NW7       30.22F WCI  22
WESTFIELD      MOSUNNY   28   8  43 NW9       30.23F WCI  19
NORTH ADAMS    SUNNY     25   7  46 VRB7      30.24F WCI  17
PITTSFIELD     CLOUDY    23   7  50 NW13      30.18F WCI  11
$$

RIZALL-171900-
RHODE ISLAND

CITY           SKY/WX    TMP DP  RH WIND       PRES   REMARKS
PROVIDENCE     MOSUNNY   31   8  38 NW9       30.24F WCI  23
6HR MIN TEMP:  11; 6HR MAX TEMP:  31;

NEWPORT        CLOUDY    30   7  37 NW9       30.23F WCI  22
BLOCK ISLAND   MOSUNNY   32  10  40 W8        30.25S WCI  25
SMITHFIELD     SUNNY     30   9  41 VRB7      30.21F WCI  23
WESTERLY       PTSUNNY   32   6  33 NW6       30.26S WCI  26
$$

CTZALL-171900-
CONNECTICUT

CITY           SKY/WX    TMP DP  RH WIND       PRES   REMARKS
BRADLEY INTL   PTSUNNY   28   8  43 NW10      30.25F WCI  19
6HR MIN TEMP:  11; 6HR MAX TEMP:  29;

HARTFORD       CLOUDY    29  12  49 NE5       30.27F WCI  24
BRIDGEPORT     CLOUDY    31  17  56 NW3       30.27F
DANBURY        CLOUDY    30  16  56 W6        30.25F WCI  24
GROTON         PTSUNNY   32   9  38 NW7       30.26R WCI  26
NEW HAVEN      PTSUNNY   32  15  49 W5        30.26F WCI  27
CHESTER        PTSUNNY   32   9  37 NW5       30.24F WCI  27
MERIDEN        CLOUDY    32   8  36 NW8       30.26S WCI  25
WILLIMANTIC    MOSUNNY   29   7  39 N5        30.25F WCI  24
OXFORD         CLOUDY    31  15  52 SW5       30.23S WCI  26
$$

MEZ002-015-021-024-NHZ003-005-008-011-012-014-VTZ005-008-171900-
NORTHERN NEW ENGLAND

CITY           SKY/WX    TMP DP  RH WIND       PRES   REMARKS
PORTLAND ME    MOSUNNY   24   5  44 NW8       30.21F WCI  15
6HR MIN TEMP:   5; 6HR MAX TEMP:  24;

BANGOR ME      MOSUNNY   20   7  57 NW8       30.17F WCI  10
CONCORD NH     SUNNY     24   4  42 NW9       30.23F WCI  14
MANCHESTER NH  MOSUNNY   27   3  35 NW10      30.21F WCI  17
NASHUA NH      SUNNY     29   8  41 NW10      30.23F WCI  20
PORTSMOUTH NH  PTSUNNY   25   1  35 NW13      30.20F WCI  14
JAFFREY NH     SUNNY     24   4  42 W9        30.17F WCI  14
KEENE NH       SUNNY     27  10  49 N3        30.24F
BURLINGTON VT  CLOUDY    17   3  54 CALM      30.31F
MT. WASHINGTON MOSUNNY    0 -26  29 NW47        N/A  WCI -31
$$

NYZ052-076-171900-
EASTERN NEW YORK

CITY           SKY/WX    TMP DP  RH WIND       PRES   REMARKS
ALBANY         MOSUNNY   26  12  55 NW10      30.28F WCI  16
6HR MIN TEMP:   9; 6HR MAX TEMP:  27;

NEW YORK CITY  CLOUDY    36  22  56 CALM      30.26F
6HR MIN TEMP:  33; 6HR MAX TEMP:  36;

$$

ANZALL-171900-
MARINE OBSERVATIONS

STATION/POSITION TIME  TEMP    WIND        PRES    VSBY  WAVE
                       AIR SEA DIR/SP/G                  HT/PER
                 (UTC) (F)     (DEG/KT/KT) (MB)    (MI)  (FT/S)
BOSTON BUOY      1750   28 47  310/ 16/ 19 1023.0F         2/ 3
BUZZARDS BAY     1700   27     330/  9/ 10 1024.9F
NANTUCKET SOUND  1750   28 40  320/  6/ 10 1023.8F         1/ 3
MASS BAY-STELLWA 1704   26 46  320/ 16/ 19 1023.0F         3/ 3
ISLE OF SHOALS   1700   23     290/ 14/ 17 1023.4F
S OF BLOCK IS    1743      52                N/A           4/ 7
$$

......................KEY.........................
  SKY/WX - SKY CONDITION/PRESENT WEATHER
  TMP    - TEMPERATURE IN FAHRENHEIT
  DWPT   - DEWPOINT IN FAHRENHEIT
  RH     - RELATIVE HUMIDITY IN PERCENT
  WIND   - DIRECTION AND SPEED IN MPH
  PRES   - MEAN SEA LEVEL PRESSURE IN INCHES OF HG
  WCI    - WIND CHILL INDEX
  VSB    - VISIBILITY IN MILES
  HX     - HEAT INDEX
  TC     - TEMPERATURE IN CELSIUS
  VRB    - VARIABLE WIND DIRECTION
  N/A    - NOT AVAILABLE




USA.gov is the U.S. government's official web portal to all federal, state and local government web resources and services.